Location: Cambroso
(45.2833°N, 12.0850°E)
Time: 16:24:00
(UTC+00:00)

Helios 1A Rocket - Pass Details

Date: 21 January 2021
Orbit: 562 x 587 km, 98.3° (Epoch: 26 February)

Event Time Altitude Azimuth Distance (km) Brightness Sun altitude
Rises 17:02:06 0° 132° (SE) 2,802 6.1 -10.3°
Reaches altitude 10° 17:04:34 10° 117° (ESE) 1,909 5.2 -10.7°
Maximum altitude 17:07:50 23° 65° (ENE) 1,268 4.1 -11.3°
Drops below altitude 10° 17:11:07 10° 13° (NNE) 1,922 5.3 -11.8°
Sets 17:13:37 0° 359° (N) 2,827 6.3 -12.3°
